Airfield :
LOGIN :

Register | Disclaimer

   EN    FR    IT 

 










Legend :    VFR   Marginal VFR   IFR   Intensive IFR   Very Intensive IFR
Visi :
Ceiling :
>= 8 km
>= 3000ft
5 to 8 km
1000 to 3000 ft
1500m to 5 km
500 to 1000 ft
800 to 1500m
200 to 500 ft
< 800m
< 200 ft
Symbols :   Thunderstorms  Fog  Heavy snow  Heavy precipitations  Wind > 20 kt
SIGMETs :     Misc.  Thunderstorms  Icing  Turbulence  Mountain Waves  Volcanic Ashes






- Airport Elevation : 512 ft
- IATA code : URO


LFOP - Rouen Vallée de Seine

CURRENT METAR :
  • 252200Z AUTO 31010KT 260V330 9999 FEW048 11/04 Q1009

EXPIRED METARs :
  • 252130Z AUTO 31013KT CAVOK 12/04 Q1009
  • 252100Z AUTO 30010KT 9999 SCT047 BKN062 12/04 Q1009
  • 252030Z AUTO 30012KT 270V330 CAVOK 12/04 Q1009
  • 252000Z AUTO 29009KT CAVOK 12/04 Q1008 NOSIG

TAF TAF LFOP
Valid from the 25 at 18:00 until the 26 at 18:00 UTC


251700Z 2518/2618 31015KT 9999 BKN030
BECMG 2609/2612 31015G25KT
PROB30
TEMPO 2615/2618 SHRA BKN025TCU
ATIS : +33 2 35 80 80 34
Met : +33 2 32 86 52 80



MET'MAP, your aeronautical weather chart ! - Copyright ORBIFLY December 2007 - Disclaimer

ORBIFLY MET'MAP TEAM :

Programming & Development : Alexandra Zaïnal
Concept & original design : Baudouin d'Aumeries
Assistance for programming : Marc-Olivier Méhu
Technical & hardware support : Manuel Goepfert

Contact : metmap@orbifly.com




SOURCES & CREDITS :

   NOAA